Weather Roundup
Issued by NWS Springfield, MO

Home | Current Version | Previous Version | Text Only | Print | Product List | Glossary On
Versions: 1 2 3 4 5 6 7 8 9 10 11 12 13 14 15 16 17 18 19 20 21 22 23 24 25 26 27 28 29 30 31 32 33 34 35 36 37 38 39 40 41 42 43 44 45 46 47 48 49 50
000
NZUS99 KSGF 171507
HRRSGF

HOURLY WEATHER
NATIONAL WEATHER SERVICE SPRINGFIELD MO
900 AM CST SAT FEB 17 2018

......SGF CWA......

CITY           SKY/WX    TMP DP  RH WIND       PRES   REMARKS
SPRINGFIELD    LGT RAIN  38  36  92 S3        30.05R FOG
JOPLIN         LGT RAIN  39  39 100 SW8       30.04S FOG     WCI  33
WEST PLAINS    MIX PCPN  34  33  96 SE5       30.04S FOG     WCI  30
ROLLA          LGT SNOW  32  31  96 SE7       30.04F FOG     WCI  26
OSAGE BEACH    LGT RAIN  34  32  93 SE5       30.05S FOG     WCI  30
BRANSON        CLOUDY    37  37 100 SE6       30.05R FOG     WCI  33

......SURROUNDING SGF CWA......

CITY           SKY/WX    TMP DP  RH WIND       PRES   REMARKS
CHANUTE        CLOUDY    38  36  92 SW13      30.06R WCI  30
PARSONS        CLOUDY    37  37 100 SW7       30.06R WCI  32
COFFEYVILLE    CLOUDY    38  37  97 SW10      30.05S FOG     WCI  31
EMPORIA        MOSUNNY   38  31  76 W16G23    30.01R WCI  29
GROVE OK       DRIZZLE   43  41  93 W5        30.09R
ROGERS AR      CLOUDY    40  39  97 SW10      30.05R WCI  33
SILOAM SPRINGS CLOUDY    40  39  97 S14       30.05R WCI  32
HARRISON AR      N/A    N/A N/A N/A MISG      30.05R
NEAR YELLVILLE LGT RAIN  37  36  96 S6        30.06F FOG     WCI  32

......KANSAS AND MISSOURI......

CITY           SKY/WX    TMP DP  RH WIND       PRES   REMARKS
KANSAS CTY INT CLOUDY    34  32  92 SW12      29.99R WCI  25
DOWNTOWN KC    CLOUDY    37  33  85 SW8       30.00R WCI  31
COLUMBIA       LGT SNOW  33  31  92 S13       30.03S FOG     WCI  24
SEDALIA        CLOUDY    35  35 100 S13       30.02R WCI  26
ST JOSEPH      CLOUDY    35  29  78 SW14      29.98R WCI  26
ST LOUIS       LGT SNOW  33  32  96 S12       30.07F VSB 3/4 WCI  24
SPIRIT OF STL  LGT SNOW  33  32  96 S7        30.07F VSB 3/4 WCI  27
KIRKSVILLE     CLOUDY    33  25  72 S10       29.98S WCI  25
WICHITA        MOSUNNY   37  32  82 SW8       30.03R WCI  31
TOPEKA         MOSUNNY   38  32  79 SW12      30.01R WCI  30
OLATHE         CLOUDY    33  33 100 SW9       30.00R WCI  25

......TENNESSEE......

CITY           SKY/WX    TMP DP  RH WIND       PRES   REMARKS
MEMPHIS        HVY RAIN  42  41  96 N12       30.12R FOG
NASHVILLE      RAIN      41  39  93 NE7       30.06F VSB 1

......ARKANSAS.......

CITY           SKY/WX    TMP DP  RH WIND       PRES   REMARKS
FAYETTEVILLE   CLOUDY    41  40  96 SW8       30.06R
FT SMITH       CLOUDY    43  41  93 NE6       30.10R
LITTLE ROCK    LGT RAIN  40  40 100 E7        30.11F FOG

......OKLAHOMA.......

CITY           SKY/WX    TMP DP  RH WIND       PRES   REMARKS
TULSA          CLOUDY    41  39  93 S5        30.07R
PONCA CITY     CLOUDY    38  34  85 W3        30.06R
MCALESTER      CLOUDY    42  41  96 SW7       30.10R
OKLAHOMA CITY  PTSUNNY   38  35  89 SW10      30.06R WCI  31

......IOWA............

CITY           SKY/WX    TMP DP  RH WIND       PRES   REMARKS
DES MOINES     CLOUDY    28  14  55 SE6       29.94F WCI  22
QUAD CITIES    CLOUDY    27  19  72 SE3       30.02F

......ILLINOIS........

CITY           SKY/WX    TMP DP  RH WIND       PRES   REMARKS
QUINCY         CLOUDY    32  25  75 S9        30.01F WCI  24
CHICAGO        CLOUDY    23  12  62 S7        30.08F WCI  15




USA.gov is the U.S. government's official web portal to all federal, state and local government web resources and services.